Temperature
14 14 14 15 19 20 22 22 21 21 21 20 20 21 22 23 23 21 16 16 16 16 16 16 16 16 17 17 17 17 17 17 17 17 17 17 17 17 17 17 17 17 16 16 16 16 16 16 16
13 14 14 17 20 21 22 22 21 21 20 18 18 19 21 20 18 16 15 16 16 16 16 16 16 16 16 16 16 17 17 17 17 17 17 17 17 17 16 16 16 16 16 16 16 16 16 16 15
13 14 16 19 20 22 22 21 21 20 18 18 19 19 20 19 16 15 15 15 15 15 15 16 16 16 16 16 16 16 16 16 16 16 16 16 16 16 16 16 16 16 16 16 16 16 16 15 15
13 14 16 19 20 21 21 20 19 19 18 18 19 19 17 15 15 15 15 15 15 15 15 15 15 15 16 16 16 16 16 16 16 16 16 16 16 16 16 16 16 16 16 16 16 15 15 15 15
13 16 18 18 19 20 19 19 18 20 20 19 19 19 17 14 15 15 15 15 15 15 15 15 15 15 15 15 16 16 16 16 16 16 16 16 16 16 16 16 16 16 16 16 15 15 15 15 15
14 17 18 19 20 19 19 17 18 19 19 18 18 19 17 14 14 14 14 14 15 15 15 15 15 15 15 15 15 15 15 15 16 16 16 16 16 16 15 15 15 15 15 15 15 15 15 15 15
16 17 18 19 19 19 18 17 18 19 19 18 18 19 16 14 14 14 14 14 14 15 15 15 15 15 15 15 15 15 15 15 15 15 15 15 15 15 15 15 15 15 15 15 15 15 15 15 14
14 17 17 18 18 18 17 16 16 17 18 16 16 19 17 14 14 14 14 14 14 14 14 14 14 14 15 15 15 15 15 15 15 15 15 15 15 15 15 15 15 15 15 14 14 14 14 14 14
13 16 17 17 17 18 16 16 15 14 15 15 15 16 15 14 14 13 13 14 14 14 14 14 14 14 14 14 14 14 14 14 14 14 14 14 14 14 14 14 14 14 14 14 14 14 14 14 14
14 15 17 16 16 16 15 16 15 15 16 16 15 14 14 13 13 13 13 13 14 14 14 14 14 14 14 14 14 14 14 14 14 14 14 14 14 14 14 14 14 14 14 14 14 14 14 14 13
14 15 16 15 14 14 15 14 14 15 17 17 16 14 13 13 13 13 13 13 13 14 14 14 14 14 14 14 14 13 13 14 13 13 13 13 13 13 13 13 13 13 13 13 13 13 13 13 13
13 14 13 14 12 13 14 14 14 14 16 15 14 14 13 13 13 13 13 13 13 13 13 13 13 13 13 13 13 13 13 13 13 13 13 13 13 13 12 13 13 13 13 13 13 13 13 13 13
13 13 12 12 12 12 12 13 14 14 13 13 13 13 13 13 13 13 12 12 12 13 13 13 13 13 13 13 13 13 13 12 12 13 12 12 12 12 12 12 12 12 12 12 12 12 12 12 12
13 12 12 12 12 12 12 13 13 14 13 12 12 12 12 12 12 12 12 12 12 12 12 12 13 13 12 12 12 12 12 12 12 12 12 12 12 12 12 11 11 11 12 12 12 12 12 12 12
11 12 13 12 12 12 12 13 14 13 12 12 12 12 12 12 12 12 12 12 12 12 12 12 12 12 12 12 12 12 12 12 12 12 12 12 11 11 11 11 11 11 11 11 11 11 11 11 11
12 12 13 13 12 12 12 14 15 13 12 13 13 12 12 12 12 12 11 11 11 12 12 12 12 12 12 12 12 11 11 11 11 11 11 11 11 11 11 11 11 11 11 11 11 11 11 11 11
12 13 14 13 12 12 12 14 15 12 12 13 13 13 12 12 12 11 11 11 11 11 11 11 11 11 11 11 11 11 11 11 11 11 11 11 11 11 10 10 10 10 10 10 10 10 10 10 10
13 13 13 13 12 11 12 13 14 12 12 13 13 13 12 12 12 11 11 11 11 11 11 11 11 11 11 11 11 11 11 11 11 10 10 10 10 10 10 10 10 10 9 9 9 9 9 9 9
12 12 13 12 11 11 12 13 14 14 12 13 13 13 12 12 11 11 10 10 10 11 11 11 11 11 11 10 10 10 10 10 10 10 10 10 10 10 10 10 9 9 9 9 9 9 9 9 9
11 11 12 11 10 11 12 12 13 13 13 12 13 13 12 11 11 10 10 10 10 10 10 10 10 10 10 10 10 10 10 10 10 10 10 10 10 9 9 9 9 9 8 8 8 8 8 8 8
10 11 11 11 10 10 10 13 14 13 12 11 11 11 11 11 10 10 9 9 10 10 10 10 10 10 10 10 10 10 10 10 9 9 9 9 9 9 9 9 8 8 8 8 8 8 7 7 7
10 10 10 10 10 11 11 12 14 13 12 12 12 11 11 10 10 9 9 9 9 9 9 10 10 10 10 9 9 9 9 9 9 9 9 9 9 8 8 8 8 8 7 7 7 7 7 7 7
10 9 9 9 10 10 10 10 14 12 12 12 12 11 10 9 9 8 9 9 9 9 9 9 9 9 9 9 9 9 9 9 9 8 8 8 8 8 8 8 8 7 7 7 7 7 6 6 6
8 8 8 9 9 9 11 11 13 13 12 12 12 11 9 8 8 8 8 8 8 8 9 9 9 9 9 9 8 8 8 8 8 8 8 8 7 8 7 7 7 7 7 7 6 6 6 6 6
8 9 9 9 8 10 10 10 13 12 11 11 11 10 8 7 7 7 7 8 8 8 8 8 8 8 8 8 8 8 8 8 8 7 7 7 7 7 7 7 7 6 6 6 6 6 6 6 6
8 9 9 10 11 11 9 10 12 11 10 9 9 8 7 7 7 7 7 7 7 7 8 8 8 8 8 8 7 7 7 7 7 7 7 7 7 7 7 6 6 6 6 6 6 6 5 5 5
8 8 9 9 8 9 11 11 11 10 10 9 9 8 7 7 6 6 6 7 7 7 7 7 7 7 7 7 7 7 7 7 7 7 7 6 6 6 6 6 6 6 6 6 5 5 5 5 5
8 8 8 8 8 10 11 11 12 10 10 9 9 8 7 6 6 6 6 6 7 7 7 7 7 7 7 7 7 7 6 6 6 6 6 6 6 6 6 6 5 5 5 5 5 5 5 5 5
6 6 7 8 8 9 10 11 10 10 9 9 9 8 7 6 6 5 6 6 6 6 6 6 6 6 6 6 6 6 6 6 6 6 6 6 5 5 5 5 5 5 5 5 5 5 4 4 4
7 7 7 7 6 7 10 10 9 9 8 8 8 7 6 6 5 5 6 6 6 6 6 6 6 6 6 6 6 6 6 5 5 5 5 5 5 5 5 5 5 5 4 4 4 4 4 4 4
Wind_Speed
1 2 3 4 5 6 10 7 5 5 5 2 2 3 4 3 2 2 5 5 6 8 9 11 10 11 11 11 11 11 11 10 10 10 9 9 9 8 9 9 8 8 7 6 6 7 7 7 8
2 3 4 5 7 9 8 7 9 6 4 4 3 3 3 2 2 5 5 5 7 8 9 10 11 11 11 11 11 11 10 10 9 9 9 8 8 7 8 8 8 8 7 6 6 6 6 7 7
3 3 5 5 7 10 6 5 6 5 4 4 4 2 1 3 5 5 5 6 8 8 9 10 10 11 11 11 11 11 10 10 9 8 8 8 8 7 7 7 7 7 7 6 6 6 6 6 7
4 4 4 7 12 9 5 3 4 6 5 4 4 4 3 3 2 4 7 7 8 8 9 10 10 10 10 10 10 10 10 9 9 8 8 7 7 7 7 7 7 7 6 6 6 5 6 6 6
4 5 7 9 12 7 6 4 4 6 6 5 5 4 5 3 4 7 8 7 8 8 8 10 10 10 10 10 9 9 9 9 8 8 8 7 7 7 7 7 7 6 6 5 5 5 5 5 5
6 5 8 13 12 7 6 6 6 7 6 5 5 5 4 5 6 7 7 7 7 7 7 9 10 10 10 9 9 9 8 8 8 7 7 7 7 7 7 7 7 6 6 5 4 4 4 4 4
6 6 8 9 8 8 6 5 8 8 8 6 4 6 6 7 6 7 7 7 7 7 6 6 8 9 9 9 9 8 8 7 7 7 7 7 6 6 6 6 6 5 5 4 4 3 3 3 3
5 5 7 7 8 7 4 5 3 6 6 3 4 6 6 8 7 7 7 6 6 5 5 5 5 6 7 7 8 8 7 7 7 6 6 6 6 5 5 4 5 4 4 3 3 3 2 3 3
4 7 9 7 7 4 5 5 3 1 3 4 3 1 3 9 8 8 7 6 5 4 4 4 4 5 5 6 7 7 7 6 5 5 6 4 3 3 3 3 3 3 3 3 3 2 2 2 3
8 9 9 4 4 2 4 4 4 4 6 7 6 4 5 9 9 9 8 8 7 5 4 3 4 4 4 4 5 5 4 4 3 3 3 2 2 2 1 3 3 2 2 2 2 2 3 3 3
8 9 6 5 4 3 4 4 4 6 8 9 9 9 9 10 10 10 9 8 7 6 5 4 4 4 3 3 3 3 3 3 3 2 2 1 1 1 1 1 2 2 3 3 3 3 3 3 3
7 8 6 4 3 4 5 4 6 10 8 4 5 7 10 11 12 11 9 8 7 6 6 5 4 4 4 3 3 3 3 2 2 2 2 1 1 0 0 1 1 2 2 3 3 3 4 4 5
11 6 6 7 6 7 7 9 8 11 10 7 6 8 11 12 11 10 8 8 7 7 6 6 5 5 4 4 3 3 3 3 3 2 2 2 1 1 1 1 2 2 2 3 3 4 4 5 5
7 8 8 7 8 7 9 11 9 12 8 8 9 10 11 12 11 10 9 9 8 8 7 6 6 6 5 4 3 3 3 3 3 3 3 3 2 2 2 2 2 2 3 3 4 5 5 5 5
4 6 8 9 10 6 6 12 14 12 8 10 10 10 10 11 11 11 10 9 9 8 7 6 6 6 6 5 5 3 3 3 3 3 4 3 3 3 3 3 3 3 4 4 4 5 5 5 5
4 6 8 6 7 7 8 12 8 7 10 11 11 11 10 10 11 11 10 9 9 8 7 6 6 6 6 5 5 3 4 4 3 3 4 4 4 4 3 3 4 4 4 4 4 5 5 5 6
7 9 9 6 6 6 10 10 5 5 9 11 12 11 11 11 11 10 10 9 9 8 8 7 7 7 6 5 4 4 4 4 4 4 4 4 5 5 4 4 4 5 4 4 5 5 5 6 6
9 9 8 8 5 7 11 13 10 7 9 12 12 12 11 12 11 10 9 9 8 8 8 8 8 7 6 5 4 4 4 4 4 4 4 5 5 5 5 4 5 5 5 5 5 6 6 6 6
7 9 9 6 3 7 12 15 14 12 11 12 12 11 11 11 10 8 8 8 8 8 8 8 8 7 6 5 5 5 5 4 4 4 5 6 5 5 5 5 5 5 6 7 7 7 7 6 5
10 11 10 6 3 5 10 16 15 13 13 13 13 12 11 10 8 8 8 7 8 9 8 8 8 8 7 6 5 4 5 4 4 4 5 6 6 6 5 6 6 6 6 7 8 7 7 6 5
13 14 11 8 4 5 8 11 11 9 9 9 10 10 9 9 9 8 8 8 8 8 8 7 8 7 7 6 4 4 4 4 5 5 5 5 6 6 6 7 7 7 7 7 8 8 9 7 7
11 9 9 8 6 5 4 7 7 6 7 8 8 7 8 7 7 7 7 7 8 8 7 7 7 7 7 6 6 7 6 6 6 5 5 6 6 6 7 7 7 7 7 8 9 9 8 9 7
6 3 6 8 8 8 8 7 7 5 8 7 6 6 5 5 6 6 6 6 6 6 6 6 6 6 6 7 7 7 7 6 5 5 6 6 5 6 7 7 7 8 8 9 9 9 10 9 9
6 4 3 4 6 8 11 11 8 6 7 6 5 4 3 2 4 4 4 5 5 5 5 5 6 6 6 6 7 7 8 7 7 6 6 5 5 5 7 7 8 8 8 9 9 10 11 10 10
8 7 5 5 7 8 6 9 8 3 4 5 4 3 1 1 2 3 4 4 4 4 4 5 6 5 5 6 6 7 8 8 8 7 6 6 6 6 7 7 8 8 8 9 9 9 10 11 11
13 11 7 7 7 5 6 9 4 1 2 3 3 2 1 1 1 2 2 3 4 4 4 4 5 5 5 5 5 5 6 6 6 7 7 7 7 7 8 8 8 9 9 9 9 9 10 10 10
9 11 6 2 1 4 6 6 4 3 3 3 2 1 1 2 1 1 1 1 3 3 4 4 5 5 5 4 4 5 5 5 6 6 7 7 7 7 8 8 9 9 9 10 9 9 10 10 10
5 7 6 6 6 7 7 7 5 6 5 3 1 1 2 2 2 1 1 1 1 2 3 3 4 4 4 4 4 4 4 5 5 6 7 7 8 8 8 9 9 10 10 10 10 9 10 11 10
7 7 6 6 5 6 6 4 1 4 4 3 1 1 1 2 1 1 1 1 1 1 2 2 2 3 3 3 3 4 4 5 5 5 6 7 7 8 8 9 9 10 10 10 10 10 11 11 10
7 8 7 6 6 5 6 3 3 2 3 1 1 2 2 2 2 2 2 2 1 1 2 2 2 3 3 3 3 4 4 5 5 6 6 7 8 8 8 8 9 10 10 10 10 10 10 10 10
Wind_Direction
295 243 206 199 208 223 233 218 205 180 184 177 176 197 195 190 194 102 92 112 121 132 132 129 117 120 119 116 114 112 110 108 107 109 109 111 114 119 123 123 122 122 124 123 121 121 129 131 130
236 197 195 205 225 224 225 213 207 195 150 139 155 184 180 151 65 99 119 115 126 129 131 123 117 116 117 115 113 112 111 108 107 108 110 111 114 117 121 122 120 118 120 121 119 116 118 122 129
181 215 203 205 224 230 219 189 199 176 169 181 161 168 175 126 117 116 113 130 132 128 128 116 113 115 115 114 113 112 110 107 106 107 109 110 112 112 115 119 119 117 115 114 113 116 119 120 124
184 186 209 228 227 231 240 155 152 164 171 187 179 149 130 82 102 113 124 136 132 128 128 118 113 115 115 114 114 112 110 107 105 104 108 109 110 110 111 110 111 110 114 115 114 116 121 121 127
202 198 208 226 232 228 227 218 192 190 177 176 189 165 138 104 103 125 135 136 134 124 122 123 115 115 114 114 114 114 113 112 109 105 105 107 110 108 110 109 107 108 111 117 121 123 124 131 135
187 205 219 228 225 223 223 215 209 211 196 183 189 172 138 125 130 133 136 137 132 125 120 125 119 114 112 111 112 113 112 111 111 110 107 105 105 109 111 110 108 106 106 111 119 129 133 139 149
204 208 231 235 231 226 216 201 213 212 205 195 190 175 149 146 136 141 139 135 130 124 122 124 135 129 120 114 112 110 108 108 109 110 109 105 103 101 109 113 113 113 111 109 110 122 139 155 161
220 217 229 229 229 226 184 186 212 218 207 160 193 194 169 158 147 147 143 140 133 130 129 127 132 140 139 132 119 113 108 103 101 101 103 107 112 112 108 120 119 121 121 123 124 123 132 169 180
205 224 229 222 221 210 173 189 173 213 189 184 202 207 120 144 154 158 161 161 155 146 144 145 143 144 145 139 133 129 119 110 114 111 104 116 130 132 128 112 110 127 133 137 140 141 149 186 190
203 226 231 222 216 199 184 206 191 196 205 206 198 177 152 158 172 179 184 187 186 178 168 164 166 158 158 151 149 148 142 138 139 134 128 123 121 121 130 127 131 149 159 168 170 184 193 212 218
208 231 233 223 225 237 216 221 217 223 224 220 211 191 175 182 189 196 199 199 198 190 182 182 178 177 174 168 161 157 157 158 163 154 154 156 139 132 157 164 172 195 201 212 206 215 226 233 235
216 231 234 230 217 231 237 234 231 232 237 243 232 201 191 199 205 208 209 207 201 199 197 193 189 188 187 186 177 176 173 173 172 177 182 188 188 217 246 235 239 236 233 235 234 239 242 245 243
222 229 230 239 240 249 251 244 252 246 242 248 230 208 208 210 213 215 215 212 208 208 205 202 200 198 194 194 197 188 189 191 189 190 193 206 229 237 246 258 255 256 261 254 250 246 246 248 251
223 233 242 244 241 241 245 252 245 245 234 226 218 215 215 215 215 214 214 213 211 209 207 204 204 203 200 202 204 202 197 198 203 203 208 213 227 239 248 257 267 268 266 265 262 256 252 250 251
213 240 250 240 233 230 238 250 235 236 225 222 219 217 217 220 217 217 215 214 211 209 205 202 204 206 206 208 209 212 205 206 206 210 219 221 232 241 247 254 260 268 270 265 264 264 260 259 257
205 229 239 215 211 207 217 250 231 221 220 226 225 223 222 222 221 219 216 215 213 209 206 202 201 206 208 209 209 213 216 212 213 218 223 225 233 241 248 253 260 267 269 270 265 265 265 262 261
210 227 232 219 204 204 221 253 239 226 227 232 231 228 225 221 221 219 214 213 212 210 208 204 204 207 210 209 210 218 225 223 224 226 228 232 236 240 246 253 260 263 262 265 268 268 267 270 268
216 224 231 228 198 218 235 251 255 246 243 243 238 231 225 224 222 217 214 213 213 212 209 206 205 207 206 205 207 216 227 226 228 231 235 240 242 244 250 253 258 260 259 260 262 267 268 269 271
235 230 239 242 237 240 249 259 263 257 245 242 237 230 228 229 226 216 212 211 211 210 208 205 206 204 203 203 208 215 223 224 227 231 237 240 244 246 249 255 258 257 256 258 261 265 268 272 277
229 235 244 251 238 252 269 270 268 257 242 238 238 236 231 228 222 215 213 210 211 210 209 208 208 206 208 210 213 222 231 230 233 234 236 239 242 245 248 250 255 256 258 257 257 259 262 269 265
228 232 238 245 272 254 281 274 248 236 229 232 237 237 232 224 220 213 211 214 213 210 208 209 209 210 210 209 209 213 229 229 231 234 238 242 246 246 247 251 255 256 256 255 255 255 255 262 262
231 230 231 235 245 253 250 275 248 221 223 227 227 223 225 224 223 219 216 216 214 212 208 211 209 211 211 207 212 217 230 233 239 240 245 251 251 252 249 250 254 257 257 256 255 255 256 254 257
219 199 214 229 239 257 234 251 258 217 228 224 215 213 218 223 225 225 221 217 215 209 206 210 209 211 213 213 217 224 238 238 241 243 248 255 254 252 252 252 254 255 256 257 257 256 254 252 253
162 149 168 204 222 243 230 227 256 216 222 209 204 210 214 224 230 233 227 216 211 203 202 207 208 212 214 215 219 225 239 241 242 245 249 255 256 254 254 255 254 255 255 256 257 256 253 252 253
185 179 186 198 212 235 191 222 248 230 224 220 216 212 210 247 236 233 227 216 209 205 206 211 211 215 216 217 224 232 242 242 243 246 249 256 259 260 261 261 261 259 257 257 257 256 255 254 253
196 203 207 216 225 218 196 230 239 221 232 223 226 242 263 291 280 255 237 217 210 212 214 217 221 225 228 229 233 242 247 246 247 249 252 255 259 263 266 266 265 264 263 261 257 257 257 255 255
188 209 227 234 264 247 223 235 253 203 190 187 197 238 296 323 325 301 263 216 211 214 221 226 228 233 234 241 243 250 250 250 252 255 257 260 262 266 266 268 268 266 265 263 262 257 257 256 255
218 185 183 203 215 235 232 232 215 187 190 178 173 349 349 344 339 335 303 294 240 224 232 238 237 234 239 243 247 249 254 256 257 261 263 264 266 268 268 269 269 267 265 263 262 264 260 258 257
183 191 201 200 227 233 235 222 165 206 185 183 219 344 352 351 344 2 346 333 297 251 244 254 259 249 249 255 257 260 267 267 266 267 268 269 271 272 272 272 272 270 268 265 262 262 264 261 261
214 204 195 205 211 223 243 238 78 144 154 182 331 347 351 359 1 11 5 3 344 307 297 285 283 268 263 262 264 268 275 277 274 274 275 276 276 276 276 275 274 274 274 271 264 263 264 263 263
Height
1497 1499 1501 1505 1504 1498 1490 1485 1486 1489 1490 1492 1493 1493 1491 1491 1493 1499 1501 1499 1501 1503 1504 1506 1507 1508 1510 1511 1512 1513 1514 1515 1516 1517 1517 1518 1518 1519 1520 1520 1520 1521 1521 1522 1522 1522 1523 1523 1523
1497 1500 1504 1504 1497 1492 1486 1483 1486 1487 1490 1493 1494 1494 1493 1494 1497 1498 1498 1499 1501 1503 1505 1506 1507 1509 1510 1511 1512 1513 1514 1515 1516 1516 1517 1518 1518 1519 1519 1520 1520 1520 1521 1521 1522 1522 1522 1522 1523
1497 1500 1503 1498 1492 1484 1480 1482 1484 1489 1492 1493 1493 1494 1494 1496 1497 1498 1498 1499 1502 1503 1505 1506 1507 1509 1510 1511 1512 1513 1514 1515 1515 1516 1517 1517 1518 1518 1519 1519 1520 1520 1520 1521 1521 1522 1522 1522 1522
1498 1502 1501 1495 1487 1482 1481 1484 1487 1489 1492 1493 1493 1494 1496 1497 1497 1497 1498 1500 1503 1504 1505 1506 1508 1509 1510 1511 1512 1513 1514 1514 1515 1516 1516 1517 1517 1518 1518 1519 1519 1519 1520 1520 1520 1521 1521 1521 1521
1498 1499 1495 1490 1484 1482 1485 1487 1489 1488 1489 1491 1492 1492 1495 1496 1495 1497 1498 1501 1503 1504 1506 1507 1508 1509 1510 1511 1512 1513 1513 1514 1515 1515 1516 1516 1517 1517 1517 1518 1518 1518 1519 1519 1519 1520 1520 1520 1521
1498 1495 1489 1483 1480 1482 1485 1488 1488 1487 1488 1491 1492 1492 1495 1496 1496 1497 1499 1501 1503 1504 1505 1506 1507 1509 1510 1511 1511 1512 1513 1513 1514 1515 1515 1515 1516 1516 1516 1517 1517 1517 1517 1518 1518 1519 1519 1519 1520
1495 1491 1483 1479 1480 1481 1484 1487 1487 1486 1487 1490 1491 1491 1494 1496 1496 1497 1499 1501 1502 1504 1505 1506 1507 1508 1509 1510 1511 1511 1512 1512 1513 1514 1514 1514 1515 1515 1515 1515 1516 1516 1516 1516 1517 1517 1517 1518 1518
1493 1491 1485 1482 1481 1480 1484 1486 1487 1487 1487 1490 1491 1490 1492 1495 1495 1497 1498 1500 1501 1503 1504 1505 1507 1508 1508 1509 1510 1510 1511 1511 1512 1512 1513 1513 1513 1513 1514 1514 1514 1514 1515 1515 1515 1515 1516 1516 1516
1493 1491 1482 1480 1481 1480 1485 1486 1487 1488 1488 1489 1489 1490 1491 1492 1493 1496 1498 1499 1501 1502 1503 1504 1505 1506 1507 1508 1508 1509 1509 1510 1510 1511 1511 1512 1512 1512 1512 1512 1512 1513 1513 1513 1514 1514 1514 1514 1514
1491 1485 1478 1480 1482 1482 1485 1485 1486 1487 1486 1487 1488 1488 1489 1491 1493 1495 1496 1498 1499 1500 1501 1502 1504 1505 1505 1506 1507 1507 1508 1508 1509 1509 1509 1510 1510 1510 1510 1510 1511 1511 1511 1511 1512 1512 1512 1512 1512
1486 1481 1480 1483 1484 1485 1485 1485 1486 1485 1483 1483 1485 1487 1488 1489 1491 1493 1495 1496 1497 1499 1499 1500 1502 1503 1503 1504 1505 1505 1506 1506 1507 1507 1508 1508 1508 1508 1508 1508 1508 1509 1509 1509 1509 1509 1509 1509 1509
1484 1482 1483 1483 1484 1485 1485 1484 1484 1483 1481 1482 1483 1484 1485 1487 1489 1490 1492 1494 1495 1496 1497 1498 1499 1500 1501 1502 1503 1503 1504 1504 1505 1505 1505 1506 1505 1506 1506 1506 1506 1506 1506 1506 1506 1506 1506 1506 1506
1482 1481 1483 1483 1484 1484 1484 1483 1482 1480 1480 1480 1481 1482 1483 1484 1486 1488 1490 1491 1492 1493 1495 1496 1497 1498 1499 1500 1500 1501 1502 1502 1502 1503 1503 1503 1503 1503 1503 1503 1503 1503 1503 1503 1503 1503 1503 1503 1503
1480 1481 1481 1481 1482 1482 1481 1479 1480 1474 1477 1478 1478 1479 1480 1481 1483 1485 1486 1487 1489 1490 1491 1493 1494 1495 1496 1497 1498 1499 1499 1500 1500 1500 1500 1500 1500 1500 1500 1500 1500 1501 1500 1500 1500 1500 1500 1500 1500
1481 1480 1478 1477 1478 1479 1480 1475 1472 1471 1474 1475 1475 1476 1477 1478 1480 1481 1482 1484 1485 1487 1488 1489 1491 1492 1493 1494 1495 1496 1497 1497 1497 1497 1498 1498 1498 1498 1497 1497 1497 1497 1497 1497 1497 1497 1496 1496 1496
1479 1476 1472 1471 1475 1476 1479 1465 1465 1468 1470 1470 1471 1472 1473 1475 1476 1477 1479 1480 1482 1483 1485 1486 1488 1489 1490 1491 1492 1493 1494 1494 1494 1494 1494 1494 1495 1494 1494 1494 1494 1494 1494 1493 1493 1493 1492 1492 1492
1473 1468 1464 1468 1472 1473 1473 1462 1462 1466 1467 1466 1467 1468 1469 1471 1472 1473 1475 1476 1478 1480 1481 1483 1484 1486 1487 1488 1489 1490 1491 1491 1491 1491 1491 1491 1491 1491 1491 1490 1490 1490 1490 1490 1489 1489 1489 1488 1487
1463 1462 1462 1463 1468 1470 1468 1461 1460 1463 1464 1462 1462 1464 1465 1466 1468 1469 1470 1472 1474 1476 1477 1479 1480 1482 1483 1484 1486 1486 1487 1487 1488 1487 1487 1487 1487 1487 1487 1486 1486 1486 1486 1485 1485 1485 1484 1484 1483
1462 1462 1461 1463 1468 1468 1463 1458 1456 1457 1459 1458 1458 1459 1460 1462 1464 1465 1466 1468 1469 1471 1473 1474 1476 1478 1479 1480 1481 1482 1482 1483 1483 1483 1484 1483 1483 1483 1483 1482 1482 1482 1481 1481 1481 1481 1480 1479 1479
1464 1463 1461 1464 1467 1466 1460 1455 1451 1451 1452 1453 1454 1454 1456 1458 1459 1460 1461 1463 1464 1466 1468 1470 1471 1473 1475 1476 1477 1478 1478 1478 1479 1479 1479 1479 1479 1478 1478 1477 1477 1477 1476 1476 1476 1476 1475 1475 1475
1462 1461 1460 1462 1465 1465 1462 1448 1443 1444 1447 1449 1450 1451 1452 1453 1455 1456 1457 1458 1460 1461 1463 1465 1466 1468 1470 1471 1472 1473 1473 1474 1474 1474 1474 1474 1474 1474 1473 1473 1472 1472 1472 1471 1471 1471 1470 1470 1470
1459 1459 1462 1464 1464 1457 1461 1447 1435 1439 1443 1445 1446 1447 1448 1450 1451 1452 1453 1454 1455 1457 1459 1460 1462 1464 1465 1467 1467 1468 1468 1469 1469 1469 1469 1469 1469 1469 1468 1468 1467 1467 1466 1466 1466 1466 1465 1465 1464
1457 1461 1462 1463 1462 1461 1457 1456 1433 1438 1438 1439 1441 1443 1445 1446 1447 1448 1449 1450 1451 1453 1454 1456 1458 1459 1461 1462 1463 1464 1464 1465 1465 1465 1465 1464 1464 1464 1463 1463 1462 1461 1461 1460 1460 1460 1459 1459 1458
1461 1463 1464 1463 1461 1460 1447 1449 1430 1430 1433 1435 1439 1441 1442 1444 1444 1445 1445 1446 1448 1449 1451 1452 1454 1455 1456 1457 1458 1459 1459 1460 1460 1460 1460 1459 1459 1459 1458 1458 1457 1456 1455 1455 1454 1454 1453 1453 1452
1458 1457 1457 1457 1457 1444 1444 1444 1429 1429 1433 1435 1438 1439 1441 1441 1441 1441 1442 1443 1444 1446 1447 1449 1450 1451 1452 1453 1453 1454 1455 1455 1455 1455 1455 1454 1454 1453 1453 1452 1451 1451 1450 1449 1448 1448 1447 1446 1446
1450 1448 1446 1443 1438 1433 1446 1438 1425 1432 1435 1436 1438 1439 1439 1439 1439 1439 1439 1440 1441 1443 1444 1445 1446 1447 1448 1449 1449 1450 1450 1450 1450 1450 1450 1449 1449 1448 1447 1447 1446 1445 1444 1443 1443 1441 1441 1440 1439
1447 1446 1444 1445 1447 1440 1430 1430 1429 1432 1433 1435 1436 1437 1437 1438 1438 1438 1438 1438 1439 1440 1441 1442 1442 1443 1444 1444 1444 1445 1446 1446 1446 1445 1445 1444 1444 1443 1442 1441 1440 1439 1439 1438 1437 1435 1434 1433 1432
1445 1443 1448 1446 1441 1431 1423 1424 1419 1427 1429 1432 1434 1435 1436 1437 1437 1437 1437 1437 1438 1439 1439 1439 1439 1440 1440 1441 1441 1441 1441 1441 1441 1440 1440 1439 1439 1438 1437 1435 1434 1433 1433 1432 1431 1429 1428 1427 1426
1446 1447 1443 1440 1438 1430 1422 1419 1423 1426 1429 1432 1434 1435 1436 1436 1436 1436 1436 1436 1436 1437 1437 1437 1437 1437 1437 1437 1437 1437 1437 1437 1436 1436 1435 1434 1433 1432 1431 1430 1428 1427 1427 1425 1424 1423 1422 1420 1419
1440 1440 1441 1440 1441 1436 1425 1424 1428 1429 1431 1433 1434 1435 1435 1436 1435 1435 1435 1435 1435 1435 1435 1435 1434 1434 1434 1434 1434 1433 1433 1433 1432 1431 1430 1429 1428 1427 1425 1424 1423 1422 1420 1419 1418 1416 1415 1414 1412